Previsão horária em Junglinster

Hoje, 18 Junho, Sexta-feira

Tempo Temperatura Precipitação Vento Pressão Humidade
00:00 +19°C° 0 mm 0 m/s 729 mmHg 91%
01:00 +21°C° 0.7 mm 1 m/s 729 mmHg 91%
02:00 +19°C° 0.7 mm 2 m/s 730 mmHg 92%
03:00 +19°C° 0.7 mm 3 m/s 730 mmHg 93%
04:00 +20°C° 0.1 mm 2 m/s 730 mmHg 90%
05:00 +21°C° 0.1 mm 1 m/s 729 mmHg 88%
06:00 +22°C° 0 mm 1 m/s 729 mmHg 83%
07:00 +24°C° 0 mm 1 m/s 729 mmHg 77%
08:00 +25°C° 0 mm 2 m/s 730 mmHg 72%
09:00 +26°C° 0 mm 2 m/s 730 mmHg 67%
10:00 +27°C° 0 mm 3 m/s 730 mmHg 64%
11:00 +27°C° 0 mm 3 m/s 730 mmHg 61%
12:00 +28°C° 0 mm 3 m/s 730 mmHg 59%
13:00 +28°C° 0 mm 4 m/s 730 mmHg 61%
14:00 +28°C° 0 mm 4 m/s 729 mmHg 63%
15:00 +28°C° 0 mm 5 m/s 729 mmHg 65%
16:00 +27°C° 0.3 mm 5 m/s 729 mmHg 71%
17:00 +26°C° 0.3 mm 4 m/s 729 mmHg 77%
18:00 +23°C° 0.3 mm 4 m/s 729 mmHg 83%
19:00 +22°C° 0.1 mm 3 m/s 730 mmHg 86%
20:00 +21°C° 0.1 mm 2 m/s 730 mmHg 88%
21:00 +19°C° 0.1 mm 2 m/s 730 mmHg 91%
22:00 +20°C° 0 mm 1 m/s 730 mmHg 92%
23:00 +19°C° 0 mm 1 m/s 730 mmHg 92%

Amanhã, 19 Junho, Sábado

Tempo Temperatura Precipitação Vento Pressão Humidade
00:00 +19°C° 0 mm 1 m/s 730 mmHg 93%
01:00 +18°C° 0 mm 1 m/s 730 mmHg 93%
02:00 +18°C° 0 mm 1 m/s 730 mmHg 93%
03:00 +16°C° 0 mm 1 m/s 730 mmHg 93%
04:00 +18°C° 0 mm 1 m/s 731 mmHg 92%
05:00 +19°C° 0 mm 1 m/s 731 mmHg 90%
06:00 +20°C° 0 mm 1 m/s 731 mmHg 88%
07:00 +21°C° 0 mm 1 m/s 731 mmHg 82%
08:00 +23°C° 0 mm 1 m/s 731 mmHg 75%
09:00 +25°C° 0 mm 1 m/s 731 mmHg 69%
10:00 +26°C° 0 mm 1 m/s 731 mmHg 66%
11:00 +27°C° 0 mm 1 m/s 731 mmHg 63%
12:00 +28°C° 0 mm 1 m/s 731 mmHg 60%
13:00 +28°C° 0.4 mm 1 m/s 730 mmHg 60%
14:00 +28°C° 0.4 mm 1 m/s 730 mmHg 60%
15:00 +29°C° 0.4 mm 1 m/s 729 mmHg 60%
16:00 +28°C° 0.1 mm 1 m/s 729 mmHg 66%
17:00 +27°C° 0.1 mm 2 m/s 728 mmHg 72%
18:00 +26°C° 0.1 mm 2 m/s 727 mmHg 78%
19:00 +25°C° 0.2 mm 3 m/s 727 mmHg 80%
20:00 +24°C° 0.2 mm 3 m/s 726 mmHg 82%
21:00 +22°C° 0.2 mm 4 m/s 725 mmHg 84%
22:00 +21°C° 4 mm 4 m/s 725 mmHg 88%
23:00 +20°C° 4 mm 3 m/s 725 mmHg 92%

Depois de amanhã, 20 Junho, Domingo

Tempo Temperatura Precipitação Vento Pressão Humidade
00:00 +20°C° 4 mm 3 m/s 725 mmHg 96%
01:00 +19°C° 0.8 mm 3 m/s 725 mmHg 96%
02:00 +19°C° 0.8 mm 2 m/s 726 mmHg 96%
03:00 +18°C° 0.8 mm 2 m/s 726 mmHg 97%
04:00 +18°C° 0.1 mm 2 m/s 726 mmHg 97%
05:00 +18°C° 0.1 mm 3 m/s 726 mmHg 96%
06:00 +18°C° 0.1 mm 3 m/s 726 mmHg 96%
07:00 +19°C° 0.1 mm 3 m/s 726 mmHg 94%
08:00 +19°C° 0.1 mm 4 m/s 727 mmHg 92%
09:00 +20°C° 0.1 mm 4 m/s 727 mmHg 90%
10:00 +20°C° 0.2 mm 3 m/s 727 mmHg 86%
11:00 +20°C° 0.2 mm 3 m/s 726 mmHg 83%
12:00 +21°C° 0.2 mm 3 m/s 726 mmHg 80%
13:00 +20°C° 0.1 mm 3 m/s 726 mmHg 79%
14:00 +20°C° 0.1 mm 3 m/s 726 mmHg 79%
15:00 +20°C° 0.1 mm 3 m/s 725 mmHg 78%
16:00 +20°C° 0 mm 3 m/s 725 mmHg 81%
17:00 +19°C° 0 mm 2 m/s 725 mmHg 83%
18:00 +18°C° 0 mm 2 m/s 724 mmHg 86%
19:00 +17°C° 0 mm 2 m/s 725 mmHg 89%
20:00 +16°C° 0 mm 1 m/s 725 mmHg 93%
21:00 +15°C° 0 mm 1 m/s 725 mmHg 96%
22:00 +14°C° 0 mm 1 m/s 725 mmHg 96%
23:00 +14°C° 0 mm 1 m/s 724 mmHg 96%

21 Junho, Segunda-feira

Tempo Temperatura Precipitação Vento Pressão Humidade
00:00 +13°C° 0 mm 0 m/s 724 mmHg 96%
01:00 +14°C° 0.1 mm 1 m/s 724 mmHg 97%
02:00 +14°C° 0.1 mm 1 m/s 724 mmHg 97%
03:00 +14°C° 0.1 mm 1 m/s 724 mmHg 97%
04:00 +15°C° 0.1 mm 1 m/s 724 mmHg 96%
05:00 +16°C° 0.1 mm 1 m/s 725 mmHg 96%
06:00 +16°C° 0.1 mm 1 m/s 725 mmHg 95%
07:00 +19°C° 0.1 mm 1 m/s 725 mmHg 89%
08:00 +20°C° 0.1 mm 1 m/s 725 mmHg 83%
09:00 +20°C° 0.1 mm 2 m/s 725 mmHg 77%
10:00 +21°C° 0.3 mm 3 m/s 725 mmHg 75%
11:00 +22°C° 0.3 mm 3 m/s 726 mmHg 73%
12:00 +22°C° 0.3 mm 4 m/s 726 mmHg 71%
13:00 +23°C° 0.1 mm 4 m/s 726 mmHg 67%
14:00 +24°C° 0.1 mm 3 m/s 726 mmHg 63%
15:00 +25°C° 0.1 mm 3 m/s 726 mmHg 59%
16:00 +24°C° 0.1 mm 3 m/s 726 mmHg 66%
17:00 +23°C° 0.1 mm 2 m/s 726 mmHg 73%
18:00 +21°C° 0.1 mm 2 m/s 726 mmHg 79%
19:00 +21°C° 0.9 mm 1 m/s 726 mmHg 83%
20:00 +19°C° 0.9 mm 1 m/s 726 mmHg 87%
21:00 +18°C° 0.9 mm 1 m/s 726 mmHg 91%
22:00 +16°C° 0.4 mm 1 m/s 726 mmHg 92%
23:00 +15°C° 0.4 mm 1 m/s 727 mmHg 93%

22 Junho, Terça-feira

Tempo Temperatura Precipitação Vento Pressão Humidade
00:00 +15°C° 0.4 mm 1 m/s 727 mmHg 93%
01:00 +15°C° 0 mm 1 m/s 727 mmHg 94%
02:00 +15°C° 0 mm 1 m/s 727 mmHg 94%
03:00 +14°C° 0 mm 1 m/s 727 mmHg 94%
04:00 +15°C° 0 mm 1 m/s 727 mmHg 93%
05:00 +16°C° 0 mm 1 m/s 727 mmHg 92%
06:00 +16°C° 0 mm 1 m/s 728 mmHg 91%
07:00 +18°C° 0.1 mm 1 m/s 728 mmHg 88%
08:00 +19°C° 0.1 mm 1 m/s 728 mmHg 84%
09:00 +18°C° 0.1 mm 2 m/s 728 mmHg 80%
10:00 +19°C° 0.2 mm 2 m/s 729 mmHg 76%
11:00 +20°C° 0.2 mm 2 m/s 729 mmHg 72%
12:00 +21°C° 0.2 mm 2 m/s 729 mmHg 67%
13:00 +21°C° 0.2 mm 2 m/s 729 mmHg 65%
14:00 +23°C° 0.2 mm 2 m/s 729 mmHg 62%
15:00 +23°C° 0.2 mm 2 m/s 729 mmHg 60%
16:00 +21°C° 0.1 mm 2 m/s 729 mmHg 67%
17:00 +20°C° 0.1 mm 2 m/s 729 mmHg 74%
18:00 +20°C° 0.1 mm 2 m/s 729 mmHg 81%
19:00 +19°C° 0.2 mm 1 m/s 729 mmHg 84%
20:00 +16°C° 0.2 mm 1 m/s 730 mmHg 87%
21:00 +15°C° 0.2 mm 1 m/s 730 mmHg 89%
22:00 +14°C° 0.1 mm 1 m/s 730 mmHg 90%
23:00 +14°C° 0.1 mm 1 m/s 730 mmHg 92%

23 Junho, Quarta-feira

Tempo Temperatura Precipitação Vento Pressão Humidade
00:00 +14°C° 0.1 mm 1 m/s 730 mmHg 93%
01:00 +13°C° 0 mm 1 m/s 730 mmHg 94%
02:00 +13°C° 0 mm 2 m/s 730 mmHg 95%
03:00 +13°C° 0 mm 2 m/s 730 mmHg 96%
04:00 +14°C° 0.3 mm 2 m/s 730 mmHg 95%
05:00 +14°C° 0.3 mm 2 m/s 730 mmHg 95%
06:00 +15°C° 0.3 mm 2 m/s 731 mmHg 95%
07:00 +16°C° 0.3 mm 2 m/s 731 mmHg 91%
08:00 +17°C° 0.3 mm 2 m/s 731 mmHg 87%
09:00 +18°C° 0.3 mm 2 m/s 731 mmHg 83%
10:00 +19°C° 0.6 mm 2 m/s 731 mmHg 82%
11:00 +19°C° 0.6 mm 2 m/s 731 mmHg 82%
12:00 +19°C° 0.6 mm 2 m/s 731 mmHg 81%
13:00 +19°C° 1 mm 2 m/s 731 mmHg 82%
14:00 +19°C° 1 mm 2 m/s 731 mmHg 83%
15:00 +19°C° 1 mm 2 m/s 731 mmHg 83%
16:00 +19°C° 0.9 mm 2 m/s 731 mmHg 85%
17:00 +19°C° 0.9 mm 2 m/s 731 mmHg 86%
18:00 +18°C° 0.9 mm 2 m/s 731 mmHg 88%
19:00 +17°C° 0.9 mm 2 m/s 732 mmHg 91%
20:00 +16°C° 0.9 mm 2 m/s 732 mmHg 93%
21:00 +15°C° 0.9 mm 2 m/s 732 mmHg 96%
22:00 +14°C° 0.5 mm 2 m/s 732 mmHg 96%
23:00 +14°C° 0.5 mm 2 m/s 732 mmHg 96%
Mostrar mais

Necessitamos do seu Consentimento

A Meteoprog e os seus Fornecedores de Serviços podem armazenar e aceder a dados pessoais como cookies, identificadores do dispositivo ou outras tecnologias semelhantes existentes no seu dispositivo e processar estes dados para personalizar conteúdos e anúncios, assim como funcionalidades nas redes sociais e análise de tráfego.

  • Armazenar e/ou aceder a informações no seu dispositivo

    Os cookies, identificadores do dispositivo ou outras informações podem ser armazenados ou acedidos no seu dispositivo, para os fins acima indicados.

  • Anúncios e conteúdos personalizados, medição de anúncios e conteúdos, dados sobre o público-alvo e desenvolvimento de produtos

    Os anúncios e os conteúdos podem ser personalizados com base num perfil. Podem ser adicionados dados adicionais para uma maior personalização dos anúncios e dos conteúdos. A eficácia dos anúncios e dos conteúdos pode ser medida. Podem ser obtidas informações sobre o público que visualizou os anúncios e os conteúdos. Estes dados podem ser usados para desenvolver ou melhorar sistemas, softwares ou a experiência do utilizador.

Ao clicar em "Eu concordo”, permitirá o uso de cookies, identificadores do dispositivo e web beacons mencionados ou outras tecnologias semelhantes. As configurações do navegador do seu dispositivo podem ser alteradas.

Para certos fins, podem ser invocados interesses legítimos ao invés de consentimento. Pode ler mais informação sobre este assunto na nossa Política de Privacidade e Cookies.